,,,PA_Meas_PMT16A,,PR_Meas_QMR101_102,,RH_Meas_QMH101,,SR_Meas_QMS101,,TA_Meas_QMH101,,GenWind,,GenWind,
date,time,status,PA,status,PR,status,RH,status,SR,status,TA,status,DirAvg,status,SpdAvg,
2011-02-19, 00:00:04,VALID,1004.16,VALID,0,INVALID,163.762,VALID,0,VALID,23.7,VALID,4,VALID,0.516406,
2011-02-19, 00:01:04,VALID,1004.17,VALID,0,INVALID,163.746,VALID,0,VALID,23.7212,VALID,4,VALID,0.424609,
2011-02-19, 00:02:04,VALID,1004.16,VALID,0,INVALID,163.708,VALID,0,VALID,23.723,VALID,4,VALID,0.473437,
2011-02-19, 00:03:04,VALID,1004.19,VALID,0,INVALID,163.731,VALID,0,VALID,23.7017,VALID,4,VALID,0.596875,
2011-02-19, 00:04:04,VALID,1004.16,VALID,0,INVALID,163.716,VALID,0,VALID,23.7017,VALID,4,VALID,0.586328,
2011-02-19, 00:05:04,VALID,1004.14,VALID,0,INVALID,163.723,VALID,0,VALID,23.7017,VALID,4,VALID,0.549219,
2011-02-19, 00:06:04,VALID,1004.1,VALID,0,INVALID,163.708,VALID,0,VALID,23.7017,VALID,4,VALID,0.583984,
2011-02-19, 00:07:04,VALID,1004.11,VALID,0,INVALID,163.731,VALID,0,VALID,23.6823,VALID,4,VALID,0.574219,
2011-02-19, 00:08:04,VALID,1004.08,VALID,0,INVALID,163.723,VALID,0,VALID,23.6628,VALID,4,VALID,0.540625,
2011-02-19, 00:09:04,VALID,1004.09,VALID,0,INVALID,163.716,VALID,0,VALID,23.6646,VALID,4,VALID,0.676562,
2011-02-19, 00:10:04,VALID,1004.11,VALID,0,INVALID,163.762,VALID,0,VALID,23.6239,VALID,4,VALID,0.536328,
2011-02-19, 00:11:04,VALID,1004.13,VALID,0,INVALID,163.746,VALID,0,VALID,23.6239,VALID,4,VALID,0.379297,
2011-02-19, 00:12:04,VALID,1004.13,VALID,0,INVALID,163.746,VALID,0.100563,VALID,23.6044,VALID,4,VALID,0.359766,
2011-02-19, 00:13:04,VALID,1004.13,VALID,0,INVALID,163.746,VALID,0,VALID,23.585,VALID,4,VALID,0.349609,
2011-02-19, 00:14:04,VALID,1004.15,VALID,0,INVALID,163.746,VALID,0.100563,VALID,23.585,VALID,3,VALID,0.664844,
2011-02-19, 00:15:04,VALID,1004.11,VALID,0,INVALID,163.731,VALID,0,VALID,23.6044,VALID,359,VALID,0.226563,
2011-02-19, 00:16:04,VALID,1004.1,VALID,0,INVALID,163.731,VALID,0.100563,VALID,23.5832,VALID,359,VALID,0.429297,
2011-02-19, 00:17:04,VALID,1004.08,VALID,0,INVALID,163.739,VALID,0.100563,VALID,23.6026,VALID,359,VALID,0.494922,
2011-02-19, 00:18:04,VALID,1004.06,VALID,0,INVALID,163.731,VALID,0,VALID,23.6628,VALID,344,VALID,0.5625,
2011-02-19, 00:19:04,VALID,1004.08,VALID,0,INVALID,163.708,VALID,0,VALID,23.7407,VALID,345,VALID,0.610156,
2011-02-19, 00:20:04,VALID,1004.06,VALID,0,INVALID,163.723,VALID,0,VALID,23.8575,VALID,333,VALID,0.592578,
2011-02-19, 00:21:04,VALID,1004.05,VALID,0,INVALID,163.708,VALID,0,VALID,23.9335,VALID,350,VALID,0.571484,
2011-02-19, 00:22:04,VALID,1004,VALID,0,INVALID,163.685,VALID,0,VALID,24.0521,VALID,340,VALID,0.656641,
2011-02-19, 00:23:04,VALID,1004.01,VALID,0,INVALID,163.701,VALID,0,VALID,24.1513,VALID,354,VALID,0.541406,
2011-02-19, 00:24:04,VALID,1003.99,VALID,0,INVALID,163.685,VALID,0,VALID,24.2273,VALID,333,VALID,0.4125,
2011-02-19, 00:25:04,VALID,1003.97,VALID,0,INVALID,163.678,VALID,0,VALID,24.3052,VALID,344,VALID,0.492188,
2011-02-19, 00:26:04,VALID,1003.95,VALID,0,INVALID,163.662,VALID,0,VALID,24.3636,VALID,344,VALID,0.488281,
2011-02-19, 00:27:04,VALID,1003.96,VALID,0,INVALID,163.647,VALID,0,VALID,24.4043,VALID,344,VALID,0.695703,
2011-02-19, 00:28:04,VALID,1003.94,VALID,0,INVALID,163.632,VALID,0,VALID,24.383,VALID,339,VALID,0.663672,
2011-02-19, 00:29:04,VALID,1003.9,VALID,0,INVALID,163.655,VALID,0,VALID,24.4414,VALID,351,VALID,0.445313,
2011-02-19, 00:30:04,VALID,1003.9,VALID,0,INVALID,163.655,VALID,0,VALID,24.4998,VALID,351,VALID,0.496094,
2011-02-19, 00:31:04,VALID,1003.91,VALID,0,INVALID,154.149,VALID,0,VALID,24.5193,VALID,351,VALID,0.362891,
2011-02-19, 00:32:04,VALID,1003.87,VALID,0,INVALID,154.607,VALID,0,VALID,24.4998,VALID,345,VALID,0.517578,
2011-02-19, 00:33:04,VALID,1003.84,VALID,0,INVALID,163.624,VALID,0,VALID,24.4804,VALID,345,VALID,0.573047,
2011-02-19, 00:34:04,VALID,1003.83,VALID,0,INVALID,163.655,VALID,0,VALID,24.4414,VALID,356,VALID,0.662109,
2011-02-19, 00:35:04,VALID,1003.83,VALID,0,INVALID,163.685,VALID,0,VALID,24.3636,VALID,357,VALID,0.373437,
2011-02-19, 00:36:04,VALID,1003.81,VALID,0,INVALID,163.662,VALID,0,VALID,24.3246,VALID,357,VALID,0.468359,
2011-02-19, 00:37:04,VALID,1003.78,VALID,0,INVALID,163.678,VALID,0,VALID,24.2662,VALID,357,VALID,0.423047,
2011-02-19, 00:38:04,VALID,1003.76,VALID,0,INVALID,163.662,VALID,0.100563,VALID,24.2078,VALID,357,VALID,0.422656,
2011-02-19, 00:39:04,VALID,1003.73,VALID,0,INVALID,163.708,VALID,0,VALID,24.1689,VALID,357,VALID,0.466797,
2011-02-19, 00:40:04,VALID,1003.72,VALID,0,INVALID,163.685,VALID,0,VALID,24.13,VALID,357,VALID,0.683203,
2011-02-19, 00:41:04,VALID,1003.7,VALID,0,INVALID,163.701,VALID,0,VALID,24.0503,VALID,357,VALID,0.621484,
2011-02-19, 00:42:04,VALID,1003.72,VALID,0,INVALID,163.685,VALID,0,VALID,24.0521,VALID,357,VALID,0.439453,
2011-02-19, 00:43:04,VALID,1003.67,VALID,0,INVALID,163.701,VALID,0,VALID,24.0521,VALID,355,VALID,0.607813,
2011-02-19, 00:44:04,VALID,1003.66,VALID,0,INVALID,163.701,VALID,0,VALID,24.0326,VALID,356,VALID,0.522266,
2011-02-19, 00:45:04,VALID,1003.64,VALID,0,INVALID,163.701,VALID,0,VALID,24.0326,VALID,350,VALID,0.541797,
2011-02-19, 00:46:04,VALID,1003.64,VALID,0,INVALID,163.708,VALID,0,VALID,24.0521,VALID,348,VALID,0.441016,
2011-02-19, 00:47:04,VALID,1003.59,VALID,0,INVALID,163.693,VALID,0,VALID,24.091,VALID,348,VALID,0.466797,
2011-02-19, 00:48:04,VALID,1003.6,VALID,0,INVALID,163.685,VALID,0,VALID,24.13,VALID,348,VALID,0.438281,
2011-02-19, 00:49:04,VALID,1003.58,VALID,0,INVALID,163.701,VALID,0,VALID,24.1689,VALID,348,VALID,0.228906,
2011-02-19, 00:50:04,VALID,1003.57,VALID,0,INVALID,163.701,VALID,0,VALID,24.1884,VALID,348,VALID,0.218359,
2011-02-19, 00:51:04,VALID,1003.58,VALID,0,INVALID,163.685,VALID,0,VALID,24.2255,VALID,348,VALID,0.518359,
2011-02-19, 00:52:04,VALID,1003.56,VALID,0,INVALID,163.708,VALID,0,VALID,24.2857,VALID,347,VALID,0.247656,
2011-02-19, 00:53:04,VALID,1003.56,VALID,0,INVALID,163.678,VALID,0,VALID,24.3636,VALID,346,VALID,0.324609,
2011-02-19, 00:54:04,VALID,1003.57,VALID,0,INVALID,163.662,VALID,0,VALID,24.4043,VALID,346,VALID,0.400781,
2011-02-19, 00:55:04,VALID,1003.54,VALID,0,INVALID,163.693,VALID,0,VALID,24.4025,VALID,346,VALID,0.369141,
2011-02-19, 00:56:04,VALID,1003.54,VALID,0,INVALID,163.67,VALID,0,VALID,24.383,VALID,346,VALID,0.258984,
2011-02-19, 00:57:04,VALID,1003.53,VALID,0,INVALID,163.685,VALID,0,VALID,24.3849,VALID,351,VALID,0.549609,
2011-02-19, 00:58:04,VALID,1003.52,VALID,0,INVALID,163.693,VALID,0,VALID,24.383,VALID,342,VALID,0.4375,
2011-02-19, 00:59:04,VALID,1003.5,VALID,0,INVALID,163.655,VALID,0,VALID,24.4414,VALID,336,VALID,0.295703,
2011-02-19, 01:00:04,VALID,1003.49,VALID,0,INVALID,163.701,VALID,0,VALID,24.4822,VALID,336,VALID,0.402734,
2011-02-19, 01:01:04,VALID,1003.48,VALID,0,INVALID,163.647,VALID,0,VALID,24.4998,VALID,336,VALID,0.28125,
2011-02-19, 01:02:04,VALID,1003.47,VALID,0,INVALID,163.67,VALID,0,VALID,24.5193,VALID,339,VALID,0.601172,
2011-02-19, 01:03:04,VALID,1003.45,VALID,0,INVALID,163.662,VALID,0,VALID,24.5369,VALID,354,VALID,0.625391,
2011-02-19, 01:04:04,VALID,1003.44,VALID,0,INVALID,163.639,VALID,0,VALID,24.5972,VALID,350,VALID,0.627734,
2011-02-19, 01:05:04,VALID,1003.44,VALID,0,INVALID,163.655,VALID,0,VALID,24.5972,VALID,347,VALID,0.555469,
2011-02-19, 01:06:04,VALID,1003.44,VALID,0,INVALID,163.639,VALID,0,VALID,24.5174,VALID,352,VALID,0.794922,
2011-02-19, 01:07:04,VALID,1003.42,VALID,0,INVALID,163.655,VALID,0,VALID,24.4998,VALID,351,VALID,0.637891,
2011-02-19, 01:08:04,VALID,1003.43,VALID,0,INVALID,163.67,VALID,0,VALID,24.4609,VALID,351,VALID,0.612891,
2011-02-19, 01:09:04,VALID,1003.42,VALID,0,INVALID,163.662,VALID,0,VALID,24.4025,VALID,348,VALID,0.408984,
2011-02-19, 01:10:04,VALID,1003.4,VALID,0,INVALID,163.685,VALID,0,VALID,24.4025,VALID,346,VALID,0.617188,
2011-02-19, 01:11:04,VALID,1003.41,VALID,0,INVALID,163.685,VALID,0,VALID,24.4043,VALID,355,VALID,0.649219,
2011-02-19, 01:12:04,VALID,1003.4,VALID,0,INVALID,163.678,VALID,0,VALID,24.4414,VALID,332,VALID,1.03945,
2011-02-19, 01:13:04,VALID,1003.36,VALID,0,INVALID,163.67,VALID,0,VALID,24.5388,VALID,340,VALID,0.458984,
2011-02-19, 01:14:04,VALID,1003.36,VALID,0,INVALID,163.67,VALID,0,VALID,24.6361,VALID,342,VALID,0.723437,
2011-02-19, 01:15:04,VALID,1003.34,VALID,0,INVALID,163.647,VALID,0,VALID,24.675,VALID,351,VALID,0.539453,
2011-02-19, 01:16:04,VALID,1003.29,VALID,0,INVALID,163.624,VALID,0.100563,VALID,24.7548,VALID,354,VALID,0.853516,
2011-02-19, 01:17:04,VALID,1003.28,VALID,0,INVALID,146.673,VALID,0,VALID,24.7705,VALID,350,VALID,0.628516,
2011-02-19, 01:18:04,VALID,1003.27,VALID,0,INVALID,135.214,VALID,0,VALID,24.8308,VALID,354,VALID,0.560156,
2011-02-19, 01:19:04,VALID,1003.26,VALID,0,INVALID,129.256,VALID,0,VALID,24.8892,VALID,292,VALID,0.518359,
2011-02-19, 01:20:04,VALID,1003.23,VALID,0,INVALID,121.696,VALID,0,VALID,24.93,VALID,288,VALID,0.05625,
2011-02-19, 01:21:04,VALID,1003.21,VALID,0,INVALID,118.217,VALID,0,VALID,24.9476,VALID,349,VALID,0.610156,
2011-02-19, 01:22:04,VALID,1003.18,VALID,0,INVALID,116.745,VALID,0,VALID,24.9671,VALID,340,VALID,0.0996094,
2011-02-19, 01:23:04,VALID,1003.17,VALID,0,INVALID,113.602,VALID,0,VALID,25.0079,VALID,342,VALID,0.240625,
2011-02-19, 01:24:04,VALID,1003.15,VALID,0,INVALID,113.258,VALID,0,VALID,24.9866,VALID,342,VALID,0.511328,
2011-02-19, 01:25:04,VALID,1003.16,VALID,0,INVALID,111.923,VALID,0,VALID,24.9885,VALID,328,VALID,0.60625,
2011-02-19, 01:26:04,VALID,1003.12,VALID,0,INVALID,112.938,VALID,0,VALID,24.9282,VALID,11,VALID,0.560547,
2011-02-19, 01:27:04,VALID,1003.1,VALID,0,INVALID,113.266,VALID,0,VALID,24.9282,VALID,345,VALID,0.61875,
2011-02-19, 01:28:04,VALID,1003.13,VALID,0,INVALID,112.457,VALID,0,VALID,24.9087,VALID,338,VALID,0.907422,
2011-02-19, 01:29:04,VALID,1003.09,VALID,0,INVALID,112.503,VALID,0,VALID,24.9106,VALID,339,VALID,0.764453,
2011-02-19, 01:30:04,VALID,1003.11,VALID,0,INVALID,113.93,VALID,0,VALID,24.8911,VALID,353,VALID,0.799219,
2011-02-19, 01:31:04,VALID,1003.07,VALID,0,INVALID,116.836,VALID,0,VALID,24.8716,VALID,355,VALID,0.662109,
2011-02-19, 01:32:04,VALID,1003.06,VALID,0,INVALID,118.37,VALID,0,VALID,24.8503,VALID,324,VALID,0.605859,
2011-02-19, 01:33:04,VALID,1003.04,VALID,0,INVALID,117.523,VALID,0,VALID,24.8697,VALID,341,VALID,0.947656,
2011-02-19, 01:34:04,VALID,1003,VALID,0,INVALID,115.898,VALID,0,VALID,24.8892,VALID,356,VALID,1.06133,
2011-02-19, 01:35:04,VALID,1002.98,VALID,0,INVALID,113.777,VALID,0,VALID,24.9495,VALID,352,VALID,1.40234,
2011-02-19, 01:36:04,VALID,1002.99,VALID,0,INVALID,111.534,VALID,0,VALID,24.9671,VALID,353,VALID,0.903125,
2011-02-19, 01:37:04,VALID,1003,VALID,0,INVALID,109.802,VALID,0,VALID,25.006,VALID,336,VALID,0.610547,
2011-02-19, 01:38:04,VALID,1002.99,VALID,0,VALID,104,VALID,0,VALID,25.0255,VALID,355,VALID,1.11523,
2011-02-19, 01:39:04,VALID,1003.02,VALID,0,VALID,104,VALID,0,VALID,25.0255,VALID,352,VALID,0.367578,
2011-02-19, 01:40:04,VALID,1003.02,VALID,0,VALID,104,VALID,0,VALID,25.045,VALID,8,VALID,0.762109,
2011-02-19, 01:41:04,VALID,1003.05,VALID,0,VALID,104,VALID,0,VALID,25.0839,VALID,357,VALID,1.12617,
2011-02-19, 01:42:04,VALID,1003.09,VALID,0,VALID,104,VALID,0,VALID,25.1053,VALID,5,VALID,0.638281,
2011-02-19, 01:43:04,VALID,1003.11,VALID,0,VALID,104,VALID,0,VALID,25.0839,VALID,351,VALID,0.960547,
2011-02-19, 01:44:04,VALID,1003.08,VALID,0,VALID,104,VALID,0,VALID,25.0644,VALID,347,VALID,0.967969,
2011-02-19, 01:45:04,VALID,1003.09,VALID,0,VALID,104,VALID,0,VALID,25.0839,VALID,336,VALID,0.751562,
2011-02-19, 01:46:04,VALID,1003.08,VALID,0,VALID,104,VALID,0,VALID,25.1053,VALID,348,VALID,0.64375,
2011-02-19, 01:47:04,VALID,1003.1,VALID,0,VALID,104,VALID,0,VALID,25.0644,VALID,354,VALID,1.14883,
2011-02-19, 01:48:04,VALID,1003.13,VALID,0,VALID,104,VALID,0,VALID,25.0839,VALID,345,VALID,0.76875,
2011-02-19, 01:49:04,VALID,1003.11,VALID,0,VALID,104,VALID,0,VALID,25.1053,VALID,354,VALID,0.63125,
2011-02-19, 01:50:04,VALID,1003.14,VALID,0,VALID,104,VALID,0,VALID,25.1053,VALID,2,VALID,0.942187,
2011-02-19, 01:51:04,VALID,1003.17,VALID,0,VALID,104,VALID,0,VALID,25.1034,VALID,348,VALID,0.811719,
2011-02-19, 01:52:04,VALID,1003.19,VALID,0,VALID,104,VALID,0,VALID,25.0839,VALID,352,VALID,0.910547,
2011-02-19, 01:53:04,VALID,1003.17,VALID,0,VALID,104,VALID,0,VALID,25.0839,VALID,349,VALID,0.853516,
2011-02-19, 01:54:04,VALID,1003.17,VALID,0,VALID,104,VALID,0,VALID,25.0839,VALID,344,VALID,0.871484,
2011-02-19, 01:55:04,VALID,1003.18,VALID,0,VALID,104,VALID,0,VALID,25.0839,VALID,347,VALID,1.47227,
2011-02-19, 01:56:04,VALID,1003.18,VALID,0,VALID,104,VALID,0,VALID,25.1442,VALID,344,VALID,1.37969,
2011-02-19, 01:57:04,VALID,1003.19,VALID,0,VALID,103.875,VALID,0,VALID,25.1229,VALID,339,VALID,0.982813,
2011-02-19, 01:58:04,VALID,1003.15,VALID,0,VALID,103.394,VALID,0,VALID,25.1229,VALID,353,VALID,1.36094,
2011-02-19, 01:59:04,VALID,1003.17,VALID,0,VALID,103.539,VALID,0,VALID,25.1423,VALID,340,VALID,0.746094,
2011-02-19, 02:00:04,VALID,1003.11,VALID,0,VALID,103.806,VALID,0,VALID,25.1442,VALID,279,VALID,0.352344,
2011-02-19, 02:01:04,VALID,1003.12,VALID,0,VALID,103.661,VALID,0,VALID,25.1442,VALID,293,VALID,0.443359,
2011-02-19, 02:02:04,VALID,1003.13,VALID,0,VALID,103.387,VALID,0,VALID,25.1248,VALID,353,VALID,0.726953,
2011-02-19, 02:03:04,VALID,1003.08,VALID,0,VALID,103.318,VALID,0,VALID,25.1034,VALID,352,VALID,0.986328,
2011-02-19, 02:04:04,VALID,1003.08,VALID,0,VALID,102.906,VALID,0,VALID,25.1034,VALID,355,VALID,0.424609,
2011-02-19, 02:05:04,VALID,1003.04,VALID,0,VALID,103.081,VALID,0,VALID,25.1034,VALID,335,VALID,0.838672,
2011-02-19, 02:06:04,VALID,1003.05,VALID,0,VALID,103.341,VALID,0,VALID,25.1034,VALID,346,VALID,0.81875,
2011-02-19, 02:07:04,VALID,1003.05,VALID,0,VALID,103.081,VALID,0,VALID,25.0644,VALID,6,VALID,0.572266,
2011-02-19, 02:08:04,VALID,1003.06,VALID,0,VALID,103.188,VALID,0,VALID,25.1053,VALID,341,VALID,0.696484,
2011-02-19, 02:09:04,VALID,1003.06,VALID,0,VALID,103.76,VALID,0,VALID,25.0644,VALID,340,VALID,0.623047,
2011-02-19, 02:10:04,VALID,1003.04,VALID,0,VALID,103.623,VALID,0,VALID,25.0663,VALID,338,VALID,0.825781,
2011-02-19, 02:11:04,VALID,1003.04,VALID,0,VALID,103.738,VALID,0,VALID,25.0469,VALID,339,VALID,0.573047,
2011-02-19, 02:12:04,VALID,1003.04,VALID,0,VALID,104,VALID,0,VALID,25.0274,VALID,310,VALID,0.538281,
2011-02-19, 02:13:04,VALID,1003.02,VALID,0,VALID,104,VALID,0,VALID,25.0079,VALID,344,VALID,0.748047,
2011-02-19, 02:14:04,VALID,1003,VALID,0,VALID,104,VALID,0,VALID,24.9866,VALID,336,VALID,0.358594,
2011-02-19, 02:15:04,VALID,1002.96,VALID,0,VALID,104,VALID,0,VALID,25.0079,VALID,358,VALID,0.821484,
2011-02-19, 02:16:04,VALID,1002.94,VALID,0,VALID,104,VALID,0,VALID,25.0079,VALID,349,VALID,0.739844,
2011-02-19, 02:17:04,VALID,1002.92,VALID,0,VALID,104,VALID,0,VALID,24.9671,VALID,329,VALID,0.871484,
2011-02-19, 02:18:04,VALID,1002.91,VALID,0,VALID,103.799,VALID,0,VALID,25.0079,VALID,341,VALID,1.30859,
2011-02-19, 02:19:04,VALID,1002.9,VALID,0,VALID,103.181,VALID,0,VALID,25.006,VALID,344,VALID,0.943359,
2011-02-19, 02:20:04,VALID,1002.88,VALID,0,VALID,102.883,VALID,0,VALID,25.045,VALID,341,VALID,0.577344,
2011-02-19, 02:21:04,VALID,1002.85,VALID,0,VALID,102.601,VALID,0,VALID,25.045,VALID,322,VALID,0.460156,
2011-02-19, 02:22:04,VALID,1002.8,VALID,0,VALID,102.265,VALID,0,VALID,25.0644,VALID,354,VALID,0.525391,
2011-02-19, 02:23:04,VALID,1002.79,VALID,0,VALID,102.029,VALID,0,VALID,25.0858,VALID,353,VALID,0.855469,
2011-02-19, 02:24:04,VALID,1002.79,VALID,0,VALID,101.922,VALID,0,VALID,25.1034,VALID,3,VALID,0.810547,
2011-02-19, 02:25:04,VALID,1002.79,VALID,0,VALID,102.181,VALID,0,VALID,25.1034,VALID,293,VALID,0.152344,
2011-02-19, 02:26:04,VALID,1002.79,VALID,0,VALID,102.41,VALID,0,VALID,25.1053,VALID,314,VALID,0.296094,
2011-02-19, 02:27:04,VALID,1002.78,VALID,0,VALID,102.204,VALID,0,VALID,25.0839,VALID,351,VALID,0.373828,
2011-02-19, 02:28:04,VALID,1002.81,VALID,0,VALID,102.364,VALID,0,VALID,25.0663,VALID,351,VALID,0.445313,
2011-02-19, 02:29:04,VALID,1002.79,VALID,0,VALID,102.555,VALID,0,VALID,25.0469,VALID,320,VALID,0.296875,
2011-02-19, 02:30:04,VALID,1002.8,VALID,0,VALID,102.906,VALID,0,VALID,25.0469,VALID,320,VALID,0.217578,
2011-02-19, 02:31:04,VALID,1002.77,VALID,0,VALID,102.99,VALID,0,VALID,25.0079,VALID,320,VALID,0.0398437,
2011-02-19, 02:32:04,VALID,1002.78,VALID,0,VALID,103.341,VALID,0,VALID,24.9671,VALID,350,VALID,0.406641,
2011-02-19, 02:33:04,VALID,1002.76,VALID,0,VALID,103.471,VALID,0,VALID,24.9671,VALID,330,VALID,0.480078,
2011-02-19, 02:34:04,VALID,1002.75,VALID,0,VALID,103.432,VALID,0,VALID,24.9476,VALID,330,VALID,0.390234,
2011-02-19, 02:35:04,VALID,1002.73,VALID,0,VALID,103.738,VALID,0,VALID,24.9282,VALID,346,VALID,0.236328,
2011-02-19, 02:36:04,VALID,1002.75,VALID,0,VALID,103.493,VALID,0,VALID,24.93,VALID,314,VALID,0.354688,
2011-02-19, 02:37:04,VALID,1002.74,VALID,0,VALID,103.654,VALID,0,VALID,24.8873,VALID,315,VALID,0.257031,
2011-02-19, 02:38:04,VALID,1002.72,VALID,0,VALID,103.783,VALID,0,VALID,24.93,VALID,347,VALID,0.916016,
2011-02-19, 02:39:04,VALID,1002.72,VALID,0,VALID,103.608,VALID,0,VALID,24.9106,VALID,358,VALID,0.628125,
2011-02-19, 02:40:04,VALID,1002.73,VALID,0,VALID,103.615,VALID,0,VALID,24.9106,VALID,356,VALID,0.457812,
2011-02-19, 02:41:04,VALID,1002.74,VALID,0,VALID,103.837,VALID,0,VALID,24.8911,VALID,356,VALID,0,
2011-02-19, 02:42:04,VALID,1002.76,VALID,0,VALID,104,VALID,0,VALID,24.8716,VALID,355,VALID,0.210156,
2011-02-19, 02:43:04,VALID,1002.75,VALID,0,VALID,104,VALID,0,VALID,24.8522,VALID,356,VALID,0,
2011-02-19, 02:44:04,VALID,1002.76,VALID,0,VALID,104,VALID,0,VALID,24.8113,VALID,356,VALID,0.0125,
2011-02-19, 02:45:04,VALID,1002.75,VALID,0,VALID,104,VALID,0,VALID,24.7937,VALID,292,VALID,0.536719,
2011-02-19, 02:46:04,VALID,1002.77,VALID,0,VALID,104,VALID,0,VALID,24.7529,VALID,304,VALID,0.407422,
2011-02-19, 02:47:04,VALID,1002.76,VALID,0,VALID,104,VALID,0,VALID,24.7529,VALID,305,VALID,0.126953,
2011-02-19, 02:48:04,VALID,1002.79,VALID,0,VALID,104,VALID,0,VALID,24.714,VALID,329,VALID,0.560156,
2011-02-19, 02:49:04,VALID,1002.75,VALID,0,VALID,104,VALID,0,VALID,24.675,VALID,345,VALID,0.469922,
2011-02-19, 02:50:04,VALID,1002.74,VALID,0,INVALID,110.977,VALID,0,VALID,24.638,VALID,345,VALID,0.557031,
2011-02-19, 02:51:04,VALID,1002.76,VALID,0,INVALID,116.989,VALID,0,VALID,24.5582,VALID,346,VALID,0.630859,
2011-02-19, 02:52:04,VALID,1002.78,VALID,0,INVALID,128.608,VALID,0,VALID,24.4609,VALID,350,VALID,0.627734,
2011-02-19, 02:53:04,VALID,1002.75,VALID,0,INVALID,160.062,VALID,0,VALID,24.4025,VALID,2,VALID,0.575391,
2011-02-19, 02:54:04,VALID,1002.77,VALID,0,INVALID,163.647,VALID,0,VALID,24.3246,VALID,4,VALID,0.552734,
2011-02-19, 02:55:04,VALID,1002.77,VALID,0,INVALID,163.662,VALID,0,VALID,24.2662,VALID,5,VALID,0.611719,
2011-02-19, 02:56:04,VALID,1002.76,VALID,0,INVALID,163.708,VALID,0,VALID,24.1884,VALID,10,VALID,0.387109,
2011-02-19, 02:57:04,VALID,1002.76,VALID,0,INVALID,163.685,VALID,0,VALID,24.1513,VALID,10,VALID,0.248828,
2011-02-19, 02:58:04,VALID,1002.76,VALID,0,INVALID,163.701,VALID,0,VALID,24.1105,VALID,10,VALID,0.391797,
2011-02-19, 02:59:04,VALID,1002.75,VALID,0,INVALID,163.708,VALID,0,VALID,24.091,VALID,10,VALID,0.454688,
2011-02-19, 03:00:04,VALID,1002.76,VALID,0,INVALID,163.701,VALID,0,VALID,24.091,VALID,357,VALID,0.429688,
2011-02-19, 03:01:04,VALID,1002.76,VALID,0,INVALID,163.701,VALID,0,VALID,24.1123,VALID,357,VALID,0.369141,
2011-02-19, 03:02:04,VALID,1002.74,VALID,0,INVALID,163.67,VALID,0,VALID,24.0716,VALID,357,VALID,0.443359,
2011-02-19, 03:03:04,VALID,1002.74,VALID,0,INVALID,163.716,VALID,0,VALID,24.0716,VALID,357,VALID,0.340234,
2011-02-19, 03:04:04,VALID,1002.77,VALID,0,INVALID,163.708,VALID,0,VALID,24.0345,VALID,357,VALID,0.375391,
2011-02-19, 03:05:04,VALID,1002.79,VALID,0,INVALID,163.701,VALID,0,VALID,24.0345,VALID,357,VALID,0.508203,
2011-02-19, 03:06:04,VALID,1002.75,VALID,0,INVALID,163.678,VALID,0,VALID,24.015,VALID,357,VALID,0.466797,
2011-02-19, 03:07:04,VALID,1002.77,VALID,0,INVALID,163.708,VALID,0,VALID,23.9548,VALID,358,VALID,0.58125,
2011-02-19, 03:08:04,VALID,1002.77,VALID,0,INVALID,163.701,VALID,0,VALID,23.953,VALID,358,VALID,0.554297,
2011-02-19, 03:09:04,VALID,1002.73,VALID,0,INVALID,163.716,VALID,0,VALID,23.9548,VALID,358,VALID,0.516016,
2011-02-19, 03:10:04,VALID,1002.73,VALID,0,INVALID,163.693,VALID,0,VALID,23.9566,VALID,358,VALID,0.366016,
2011-02-19, 03:11:04,VALID,1002.68,VALID,0,INVALID,163.701,VALID,0,VALID,23.9159,VALID,358,VALID,0.630859,
2011-02-19, 03:12:04,VALID,1002.69,VALID,0,INVALID,163.723,VALID,0,VALID,23.9177,VALID,358,VALID,0.463281,
2011-02-19, 03:13:04,VALID,1002.68,VALID,0,INVALID,163.708,VALID,0,VALID,23.8769,VALID,358,VALID,0.352344,
2011-02-19, 03:14:04,VALID,1002.66,VALID,0,INVALID,163.731,VALID,0.100563,VALID,23.8362,VALID,358,VALID,0.455078,
2011-02-19, 03:15:04,VALID,1002.64,VALID,0,INVALID,163.716,VALID,0.100563,VALID,23.838,VALID,358,VALID,0.394922,
2011-02-19, 03:16:04,VALID,1002.63,VALID,0,INVALID,163.708,VALID,0.100563,VALID,23.8185,VALID,358,VALID,0.353906,
2011-02-19, 03:17:04,VALID,1002.62,VALID,0,INVALID,163.716,VALID,0,VALID,23.7991,VALID,358,VALID,0.260938,
2011-02-19, 03:18:04,VALID,1002.59,VALID,0,INVALID,163.723,VALID,0,VALID,23.7796,VALID,358,VALID,0.429688,
2011-02-19, 03:19:04,VALID,1002.56,VALID,0,INVALID,163.716,VALID,0.100563,VALID,23.7796,VALID,358,VALID,0.268359,
2011-02-19, 03:20:04,VALID,1002.51,VALID,0,INVALID,163.723,VALID,0,VALID,23.8009,VALID,358,VALID,0.358594,
2011-02-19, 03:21:04,VALID,1002.5,VALID,0,INVALID,163.731,VALID,0,VALID,23.7601,VALID,358,VALID,0.326562,
2011-02-19, 03:22:04,VALID,1002.47,VALID,0,INVALID,163.716,VALID,0,VALID,23.7389,VALID,356,VALID,0.457422,
2011-02-19, 03:23:04,VALID,1002.44,VALID,0,INVALID,163.716,VALID,0,VALID,23.7601,VALID,349,VALID,0.512891,
2011-02-19, 03:24:04,VALID,1002.43,VALID,0,INVALID,163.716,VALID,0,VALID,23.7601,VALID,349,VALID,0.553125,
2011-02-19, 03:25:04,VALID,1002.46,VALID,0,INVALID,163.708,VALID,0,VALID,23.7583,VALID,349,VALID,0.483984,
2011-02-19, 03:26:04,VALID,1002.42,VALID,0,INVALID,163.723,VALID,0,VALID,23.7601,VALID,349,VALID,0.588281,
2011-02-19, 03:27:04,VALID,1002.44,VALID,0,INVALID,163.701,VALID,0,VALID,23.7601,VALID,350,VALID,0.588672,
2011-02-19, 03:28:04,VALID,1002.46,VALID,0,INVALID,163.693,VALID,0,VALID,23.7407,VALID,352,VALID,0.580469,
2011-02-19, 03:29:04,VALID,1002.49,VALID,0,INVALID,163.716,VALID,0,VALID,23.7425,VALID,352,VALID,0.43125,
2011-02-19, 03:30:04,VALID,1002.49,VALID,0,INVALID,163.739,VALID,0,VALID,23.7017,VALID,352,VALID,0.592969,
2011-02-19, 03:31:04,VALID,1002.46,VALID,0,INVALID,163.731,VALID,0,VALID,23.7212,VALID,352,VALID,0.466016,
2011-02-19, 03:32:04,VALID,1002.46,VALID,0,INVALID,163.731,VALID,0,VALID,23.7017,VALID,352,VALID,0.487891,
2011-02-19, 03:33:04,VALID,1002.41,VALID,0,INVALID,163.731,VALID,0,VALID,23.7212,VALID,352,VALID,0.487109,
2011-02-19, 03:34:04,VALID,1002.44,VALID,0,INVALID,163.731,VALID,0,VALID,23.7619,VALID,352,VALID,0.420312,
2011-02-19, 03:35:04,VALID,1002.44,VALID,0,INVALID,163.746,VALID,0,VALID,23.7407,VALID,358,VALID,0.538672,
2011-02-19, 03:36:04,VALID,1002.45,VALID,0,INVALID,163.716,VALID,0,VALID,23.7389,VALID,358,VALID,0.445313,
2011-02-19, 03:37:04,VALID,1002.47,VALID,0,INVALID,163.723,VALID,0,VALID,23.7407,VALID,358,VALID,0.558594,
2011-02-19, 03:38:04,VALID,1002.46,VALID,0,INVALID,163.716,VALID,0,VALID,23.7796,VALID,347,VALID,0.528906,
2011-02-19, 03:39:04,VALID,1002.47,VALID,0,INVALID,163.731,VALID,0,VALID,23.8185,VALID,348,VALID,0.652734,
2011-02-19, 03:40:04,VALID,1002.49,VALID,0,INVALID,163.701,VALID,0,VALID,23.8398,VALID,348,VALID,0.550391,
2011-02-19, 03:41:04,VALID,1002.49,VALID,0,INVALID,163.716,VALID,0,VALID,23.8362,VALID,352,VALID,0.678906,
2011-02-19, 03:42:04,VALID,1002.51,VALID,0,INVALID,163.716,VALID,0,VALID,23.8964,VALID,355,VALID,0.269922,